Location: Meriden
(44.0740°N, 93.3870°W)
Time: 16:10:50
(UTC-05:00)

Amateur Radio Satellites - All Passes

Search period start: 04 May 2016 15:40
Search period end: 05 May 2016 15:40
Location: Meriden, 44.0740°N, 93.3870°W

Satellite Date Start Highest point End Downlink Frequencies (MHz)
Time Altitude Azimuth
SO-50 04 May 15:47:45 15:52:31 72° 54° (NE) 15:57:06 436.795
AO-7 04 May 16:00:41 16:08:59 87° 252° (WSW) 16:17:20 29.400- 29.500
AO-85 04 May 16:05:54 16:06:51 10° 338° (NNW) 16:07:47 145.980
KKS-1 04 May 16:06:58 16:10:26 22° 94° (E) 16:13:52 437.445
BEESAT 04 May 16:09:35 16:14:12 50° 289° (WNW) 16:18:48 436.000
STARS 04 May 16:19:07 16:21:41 15° 91° (E) 16:24:13 437.465
MOZHAYETS 4 04 May 16:23:48 16:27:23 22° 93° (E) 16:30:56
Cosmos 2491 04 May 16:32:59 16:39:18 21° 60° (ENE) 16:45:32 435.465 / 435.565
HORYU 2 04 May 16:33:05 16:37:19 43° 70° (ENE) 16:41:33 437.375
DANDE 04 May 16:37:12 16:40:11 54° 285° (WNW) 16:44:01 436.750
ITAMSAT 1 04 May 16:40:03 16:42:57 15° 270° (W) 16:45:51 435.822/435.867
ITUPSAT 1 04 May 17:07:10 17:10:09 17° 299° (WNW) 17:13:08 437.325
PCSat 04 May 17:10:46 17:15:41 34° 312° (NW) 17:20:38 145.827
NOAA 18 04 May 17:10:49 17:15:00 23° 61° (ENE) 17:19:09 137.9125
SWISSCUBE 04 May 17:16:19 17:18:21 13° 302° (WNW) 17:20:24 437.505
NOAA 15 04 May 17:17:09 17:21:26 26° 63° (ENE) 17:25:47 137.62
CUSAT 1 04 May 17:22:12 17:23:19 11° 306° (NW) 17:24:29 437.405
Cubesat XI-IV 04 May 17:26:39 17:30:37 22° 62° (ENE) 17:34:35 437.490
M-CUBED/EXP-1 PRIME 04 May 17:28:19 17:29:21 11° 53° (NE) 17:30:22 437.505
SO-50 04 May 17:29:50 17:32:22 15° 252° (WSW) 17:34:52 436.795
BRITE-PL 04 May 17:35:30 17:39:21 23° 62° (ENE) 17:43:24 437.365/2234.400
KKS-1 04 May 17:42:58 17:47:08 39° 291° (WNW) 17:51:16 437.445
AUBIESAT-1 04 May 17:44:15 17:46:09 12° 54° (NE) 17:48:02 437.475
STARS 04 May 17:54:04 17:58:23 55° 288° (WNW) 18:02:40 437.465
AO-7 04 May 17:57:27 18:02:51 19° 271° (W) 18:08:17 29.400- 29.500
MOZHAYETS 4 04 May 18:00:25 18:04:40 39° 290° (WNW) 18:08:55
HORYU 2 04 May 18:10:49 18:14:04 20° 267° (W) 18:17:19 437.375
CUBESAT XI-V 04 May 18:13:45 18:18:04 35° 97° (E) 18:22:23 437.345
CUTE-I 04 May 18:19:56 18:25:10 60° 71° (ENE) 18:30:24 437.470
HO-68 04 May 18:20:43 18:24:16 15° 48° (NE) 18:27:47 435.675
BEESAT 3 04 May 18:23:19 18:27:04 45° 119° (ESE) 18:30:52 437.485
DOVE 4 04 May 18:23:29 18:26:53 18° 61° (ENE) 18:30:21 437.250
Cosmos 2491 04 May 18:28:37 18:37:31 89° 88° (E) 18:46:17 435.465 / 435.565
BEESAT 2 04 May 18:34:42 18:38:20 35° 117° (ESE) 18:42:00 435.950
GOMX 1 04 May 18:35:51 18:40:37 40° 69° (ENE) 18:45:38 467.674
LilacSat-2 04 May 18:41:03 18:44:56 85° 77° (ENE) 18:48:50 437.200
YUBILEINY 04 May 18:41:13 18:49:22 46° 88° (E) 18:57:30 435.215
NOAA 18 04 May 18:49:49 18:55:14 58° 258° (WSW) 19:00:40 137.9125
CINEMA 3 04 May 18:54:02 18:55:38 11° 58° (ENE) 18:57:12 145.822/145.860
NOAA 15 04 May 18:55:57 19:00:58 45° 261° (W) 19:06:04 137.62
M-CUBED/EXP-1 PRIME 04 May 18:58:25 19:03:07 72° 70° (ENE) 19:07:44 437.505
Cosmos 2504 04 May 19:03:55 19:06:26 12° 75° (ENE) 19:08:57 435.465 / 435.565
Cubesat XI-IV 04 May 19:05:04 19:10:17 56° 259° (W) 19:15:32 437.490
BRITE-PL 04 May 19:12:38 19:17:23 51° 262° (W) 19:22:35 437.365/2234.400
AUBIESAT-1 04 May 19:15:19 19:20:00 87° 71° (ENE) 19:24:33 437.475
AO-85 04 May 19:30:24 19:32:55 14° 28° (NNE) 19:35:20 145.980
RS-15 04 May 19:39:13 19:42:16 11° 91° (E) 19:45:21 29.354- 29.394
AAUSAT CUBESAT 2 04 May 19:41:43 19:42:41 11° 60° (ENE) 19:43:37 437.432
CANX-2 04 May 19:49:58 19:53:45 33° 70° (ENE) 19:57:32 2200.000
CUBESAT XI-V 04 May 19:51:24 19:55:19 27° 294° (WNW) 19:59:13 437.345
DOVE 4 04 May 19:58:49 20:03:57 71° 259° (W) 20:09:17 437.250
BEESAT 3 04 May 20:01:54 20:04:59 21° 317° (NW) 20:08:05 437.485
CUTE-I 04 May 20:01:57 20:05:37 19° 269° (W) 20:09:18 437.470
HO-68 04 May 20:03:36 20:10:39 65° 69° (ENE) 20:17:43 435.675
BEESAT 2 04 May 20:12:52 20:16:15 26° 315° (NW) 20:19:40 435.950
GOMX 1 04 May 20:14:26 20:18:47 28° 267° (W) 20:23:23 467.674
Oscar 11 04 May 20:18:55 20:20:43 12° 61° (ENE) 20:22:30 145.826/435.025
PRISM 04 May 20:21:04 20:21:50 10° 89° (E) 20:22:36 437.425
STRAND 1 04 May 20:21:12 20:26:16 58° 101° (E) 20:31:18 437.568
CUTE 1.7 + AOD 2 04 May 20:21:53 20:26:04 65° 74° (ENE) 20:30:15 437.475
AIST 2 04 May 20:23:24 20:27:11 36° 117° (ESE) 20:31:00 435.215
CINEMA 3 04 May 20:26:55 20:31:55 79° 77° (ENE) 20:36:57 145.822/145.860
Cosmos 2491 04 May 20:27:18 20:33:05 20° 283° (WNW) 20:38:51 435.465 / 435.565
FUNcube-1 04 May 20:32:47 20:35:19 15° 63° (ENE) 20:37:50 145.935
M-CUBED/EXP-1 PRIME 04 May 20:35:34 20:38:02 14° 265° (W) 20:40:30 437.505
YUBILEINY 04 May 20:38:04 20:46:13 42° 289° (WNW) 20:54:23 435.215
COMPASS 1 04 May 20:44:47 20:48:51 62° 74° (ENE) 20:52:56 437.405
SEEDS 04 May 20:45:17 20:49:27 87° 75° (ENE) 20:53:39 437.485
UWE-3 04 May 20:48:37 20:52:43 32° 69° (ENE) 20:56:46 435.000/436.395/437.385
Cosmos 2504 04 May 20:51:14 20:58:27 76° 96° (E) 21:05:38 435.465 / 435.565
AUBIESAT-1 04 May 20:53:45 20:54:57 11° 266° (W) 20:56:09 437.475
CUBEBUG 2 04 May 21:00:03 21:04:42 59° 73° (ENE) 21:09:16 437.445
AO-85 04 May 21:09:45 21:14:34 57° 51° (NE) 21:18:56 145.980
AAUSAT CUBESAT 2 04 May 21:13:26 21:17:33 78° 258° (WSW) 21:21:41 437.432
ZACube-1 04 May 21:14:16 21:18:28 39° 71° (ENE) 21:22:37 437.345
CANX-2 04 May 21:26:21 21:29:40 22° 266° (W) 21:33:00 2200.000
RS-15 04 May 21:40:49 21:51:43 59° 114° (ESE) 22:03:14 29.354- 29.394
Oscar 11 04 May 21:51:57 21:56:16 73° 258° (WSW) 22:00:35 145.826/435.025
HO-68 04 May 21:53:06 21:58:51 26° 267° (W) 22:04:39 435.675
PRISM 04 May 21:53:27 21:57:38 72° 285° (WNW) 22:01:47 437.425
HUMSAT D 04 May 21:59:05 22:02:45 30° 69° (ENE) 22:06:26 437.325/437.525
CUTE 1.7 + AOD 2 04 May 22:00:54 22:02:21 11° 271° (W) 22:03:48 437.475
STRAND 1 04 May 22:01:22 22:05:00 20° 299° (WNW) 22:08:38 437.568
AIST 2 04 May 22:02:11 22:05:44 27° 315° (NW) 22:09:19 435.215
FUNcube-1 04 May 22:06:38 22:11:06 62° 259° (W) 22:15:30 145.935
CINEMA 3 04 May 22:07:15 22:09:36 13° 272° (W) 22:11:58 145.822/145.860
DELFI C3 04 May 22:09:07 22:13:03 86° 77° (ENE) 22:17:02 145.870
COMPASS 1 04 May 22:23:17 22:24:49 12° 271° (W) 22:26:22 437.405
UWE-3 04 May 22:25:13 22:29:10 27° 265° (W) 22:33:05 435.000/436.395/437.385
PCSat 04 May 22:31:42 22:33:40 12° 30° (NNE) 22:35:38 145.827
CUBEBUG 2 04 May 22:38:48 22:41:39 16° 270° (W) 22:44:29 437.445
ESTCUBE 1 04 May 22:40:58 22:44:10 20° 64° (ENE) 22:47:24 437.505/2401.250
CUBEBUG 1 04 May 22:44:35 22:47:08 15° 62° (ENE) 22:49:42 437.445
Cosmos 2504 04 May 22:47:32 22:52:40 20° 297° (WNW) 22:57:49 435.465 / 435.565
AO-85 04 May 22:51:22 22:54:29 18° 252° (WSW) 22:57:26 145.980
ZACube-1 04 May 22:51:25 22:54:53 21° 267° (W) 22:58:18 437.345
50 SAT 04 May 22:59:19 23:01:59 20° 67° (ENE) 23:04:40 437.505
UNISAT 6 04 May 23:00:50 23:04:34 27° 95° (E) 23:08:14 437.425
DX 1 04 May 23:05:57 23:09:22 23° 65° (ENE) 23:12:48 434.975-435.025
UKube-1 04 May 23:08:31 23:11:40 20° 64° (ENE) 23:14:51 .
VELOX 1 04 May 23:16:18 23:20:14 32° 68° (ENE) 23:24:11 145.980
TIGRISAT 04 May 23:17:22 23:21:25 39° 98° (E) 23:25:24 435.000
SPROUT 04 May 23:34:17 23:37:19 19° 64° (ENE) 23:40:22 437.525
HUMSAT D 04 May 23:34:56 23:38:24 24° 265° (W) 23:41:51 437.325/437.525
ANTELSAT 04 May 23:42:36 23:46:57 79° 103° (ESE) 23:51:12 437.575/2403.000
AISAT 04 May 23:48:07 23:52:33 71° 74° (ENE) 23:57:02 437.250
NANOSAT C BR1 04 May 23:52:32 23:55:34 19° 93° (E) 23:58:34 145.865
RS-15 04 May 23:53:26 00:04:30 51° 319° (NW) 00:16:13 29.354- 29.394
AIST 1 04 May 23:59:29 00:02:54 23° 88° (E) 00:06:22
TISAT 1 05 May 00:01:30 00:03:02 12° 60° (ENE) 00:04:33 437.305
O/OREOS (USA 219) 05 May 00:06:37 00:10:51 37° 60° (ENE) 00:15:02 437.305
PCSat 05 May 00:13:15 00:18:30 47° 53° (NE) 00:23:42 145.827
ESTCUBE 1 05 May 00:16:22 00:20:40 45° 261° (W) 00:25:00 437.505/2401.250
CUBEBUG 1 05 May 00:18:36 00:22:56 60° 259° (W) 00:27:19 437.445
GONETS M04 05 May 00:25:46 00:34:08 50° 89° (E) 00:42:31
CUSAT 1 05 May 00:25:52 00:30:09 16° 60° (ENE) 00:34:40 437.405
50 SAT 05 May 00:32:24 00:35:37 29° 263° (W) 00:38:50 437.505
JAS-2 05 May 00:36:24 00:40:46 16° 84° (E) 00:45:06 435.910
UNISAT 6 05 May 00:37:33 00:41:15 28° 293° (WNW) 00:44:53 437.425
DX 1 05 May 00:41:19 00:45:21 37° 262° (W) 00:49:26 434.975-435.025
DUCHIFAT 1 05 May 00:42:59 00:47:11 63° 101° (E) 00:51:20 145.980
UKube-1 05 May 00:43:21 00:47:26 42° 261° (W) 00:51:35 .
QB50P2 05 May 00:46:37 00:50:53 82° 101° (ESE) 00:55:06 145.880/145.840
POLYITAN 1 05 May 00:48:49 00:53:04 83° 103° (ESE) 00:57:17 437.675
POPSAT HIP 1 05 May 00:50:46 00:55:02 85° 100° (E) 00:59:15 437.405
Cosmos 2499 05 May 00:51:30 00:57:44 35° 86° (E) 01:04:02 435.465 / 435.565
VELOX 1 05 May 00:52:57 00:56:42 26° 265° (W) 01:00:29 145.980
QB50P1 05 May 00:53:46 00:58:03 88° 274° (W) 01:02:15 145.935-145.965
TIGRISAT 05 May 00:54:39 00:57:51 21° 295° (WNW) 01:01:01 435.000
ITUPSAT 1 05 May 01:02:11 01:03:45 12° 57° (ENE) 01:05:20 437.325
SPROUT 05 May 01:08:50 01:12:57 44° 261° (W) 01:17:07 437.525
SWISSCUBE 05 May 01:09:04 01:11:44 15° 60° (ENE) 01:14:25 437.505
BUGSAT 1 05 May 01:15:06 01:19:19 70° 103° (ESE) 01:23:25 437.445
ANTELSAT 05 May 01:21:36 01:23:01 11° 301° (WNW) 01:24:26 437.575/2403.000
NANOSAT C BR1 05 May 01:27:31 01:31:29 39° 290° (WNW) 01:35:24 145.865
AISAT 05 May 01:27:50 01:29:32 12° 271° (W) 01:31:15 437.250
DANDE 05 May 01:28:29 01:33:35 22° 67° (ENE) 01:39:21 436.750
TISAT 1 05 May 01:33:49 01:38:04 77° 257° (WSW) 01:42:21 437.305
AIST 1 05 May 01:36:29 01:40:21 31° 286° (WNW) 01:44:16
BEESAT 05 May 01:40:28 01:44:23 26° 65° (ENE) 01:48:19 436.000
Oscar 19 05 May 01:46:02 01:50:03 22° 93° (E) 01:54:01 437.125/150
O/OREOS (USA 219) 05 May 01:46:28 01:50:02 23° 258° (WSW) 01:53:35 437.305
PCSat 05 May 01:57:05 02:01:39 28° 251° (WSW) 02:06:12 145.827
Gurwin Techsat 1B 05 May 02:00:59 02:03:07 12° 88° (E) 02:05:16 435.225
CUSAT 1 05 May 02:06:02 02:13:22 69° 78° (ENE) 02:21:26 437.405
RS-15 05 May 02:10:59 02:20:44 28° 352° (N) 02:30:50 29.354- 29.394
JAS-2 05 May 02:19:02 02:26:55 76° 103° (ESE) 02:34:41 435.910
DUCHIFAT 1 05 May 02:20:17 02:22:22 13° 299° (WNW) 02:24:25 145.980
GONETS M04 05 May 02:23:00 02:31:08 40° 290° (WNW) 02:39:19
QB50P2 05 May 02:24:54 02:26:02 11° 300° (WNW) 02:27:10 145.880/145.840
POLYITAN 1 05 May 02:27:13 02:28:13 11° 301° (WNW) 02:29:13 437.675
POPSAT HIP 1 05 May 02:29:17 02:30:09 11° 301° (WNW) 02:31:02 437.405
ITUPSAT 1 05 May 02:36:04 02:40:50 86° 78° (ENE) 02:45:38 437.325
BEESAT 3 05 May 02:39:14 02:43:02 43° 50° (NE) 02:46:48 437.485
Cosmos 2499 05 May 02:44:03 02:50:40 42° 287° (WNW) 02:57:25 435.465 / 435.565
SWISSCUBE 05 May 02:44:14 02:48:58 71° 257° (WSW) 02:53:44 437.505
BEESAT 2 05 May 02:51:15 02:54:58 36° 48° (NE) 02:58:39 435.950
BUGSAT 1 05 May 02:52:24 02:54:06 12° 300° (WNW) 02:55:48 437.445
KKS-1 05 May 03:06:23 03:10:02 25° 66° (ENE) 03:13:41 437.445
ITAMSAT 1 05 May 03:09:49 03:13:50 22° 93° (E) 03:17:50 435.822/435.867
DANDE 05 May 03:10:07 03:16:54 83° 261° (W) 03:25:05 436.750
STARS 05 May 03:17:12 03:20:09 18° 63° (ENE) 03:23:07 437.465
BEESAT 05 May 03:17:38 03:22:01 37° 262° (W) 03:26:26 436.000
Oscar 19 05 May 03:24:36 03:29:38 50° 290° (WNW) 03:34:37 437.125/150
MOZHAYETS 4 05 May 03:27:07 03:30:52 26° 66° (ENE) 03:34:37
Gurwin Techsat 1B 05 May 03:38:25 03:43:46 87° 287° (WNW) 03:49:06 435.225
CUSAT 1 05 May 03:49:00 03:55:04 28° 273° (W) 04:01:33 437.405
AO-7 05 May 04:01:13 04:08:11 29° 94° (E) 04:15:07 29.400- 29.500
JAS-2 05 May 04:04:56 04:11:11 28° 301° (WNW) 04:17:28 435.910
BEESAT 3 05 May 04:17:39 04:20:26 19° 248° (WSW) 04:23:13 437.485
ITUPSAT 1 05 May 04:18:19 04:19:19 11° 272° (W) 04:20:18 437.325
RS-15 05 May 04:27:08 04:38:02 36° 27° (NNE) 04:49:05 29.354- 29.394
BEESAT 2 05 May 04:29:27 04:32:39 23° 246° (WSW) 04:35:50 435.950
KKS-1 05 May 04:42:19 04:46:25 35° 262° (W) 04:50:34 437.445
AIST 2 05 May 04:43:08 04:47:04 39° 49° (NE) 04:50:57 435.215
ITAMSAT 1 05 May 04:48:34 04:53:33 49° 290° (WNW) 04:58:32 435.822/435.867
YUBILEINY 05 May 04:49:32 04:56:22 25° 63° (ENE) 05:03:10 435.215
STARS 05 May 04:51:48 04:56:08 52° 260° (W) 05:00:29 437.465
DANDE 05 May 04:54:54 04:59:08 17° 276° (W) 05:03:47 436.750
MOZHAYETS 4 05 May 05:03:43 05:07:53 35° 263° (W) 05:12:05
CUBESAT XI-V 05 May 05:18:22 05:22:40 40° 70° (ENE) 05:27:00 437.345
Gurwin Techsat 1B 05 May 05:20:22 05:22:56 14° 303° (WNW) 05:25:30 435.225
Cosmos 2491 05 May 05:37:54 05:44:01 21° 78° (ENE) 05:50:10 435.465 / 435.565
AO-7 05 May 05:53:17 06:01:32 68° 294° (WNW) 06:09:47 29.400- 29.500
HORYU 2 05 May 05:58:40 06:03:06 70° 102° (ESE) 06:07:29 437.375
STRAND 1 05 May 06:02:33 06:05:08 14° 58° (ENE) 06:07:42 437.568
SO-50 05 May 06:04:37 06:07:48 17° 110° (ESE) 06:10:58 436.795
ISS 05 May 06:09:09 06:11:01 14° 133° (SE) 06:12:52 145.825
AIST 2 05 May 06:22:03 06:25:21 23° 247° (WSW) 06:28:38 435.215
CUTE-I 05 May 06:36:13 06:40:12 21° 92° (E) 06:44:09 437.470
GOMX 1 05 May 06:38:34 06:40:29 12° 85° (E) 06:42:22 467.674
RS-15 05 May 06:40:15 06:52:37 83° 55° (NE) 07:04:59 29.354- 29.394
Cosmos 2504 05 May 06:41:00 06:47:35 30° 69° (ENE) 06:54:29 435.465 / 435.565
YUBILEINY 05 May 06:45:27 06:54:10 79° 265° (W) 07:02:52 435.215
CUBESAT XI-V 05 May 06:56:37 07:00:12 22° 267° (W) 07:03:48 437.345
NOAA 15 05 May 07:09:12 07:14:29 61° 102° (ESE) 07:19:43 137.62
NOAA 18 05 May 07:10:14 07:15:36 53° 101° (E) 07:20:54 137.9125
PRISM 05 May 07:12:51 07:13:26 10° 59° (ENE) 07:14:01 437.425
BRITE-PL 05 May 07:15:29 07:21:05 53° 98° (E) 07:26:30 437.365/2234.400
Cubesat XI-IV 05 May 07:20:38 07:25:50 51° 100° (E) 07:31:01 437.490
Cosmos 2491 05 May 07:30:51 07:39:43 84° 278° (W) 07:48:38 435.465 / 435.565
HORYU 2 05 May 07:36:56 07:39:06 14° 300° (WNW) 07:41:15 437.375
STRAND 1 05 May 07:38:30 07:43:36 85° 256° (WSW) 07:48:44 437.568
SO-50 05 May 07:42:52 07:47:46 68° 307° (NW) 07:52:41 436.795
ISS 05 May 07:43:49 07:47:04 80° 329° (NNW) 07:50:21 145.825
LilacSat-2 05 May 07:47:17 07:51:06 76° 284° (WNW) 07:54:52 437.200
AO-7 05 May 07:47:46 07:52:51 18° 315° (NW) 07:57:57 29.400- 29.500
DOVE 4 05 May 07:57:04 08:01:35 31° 94° (E) 08:05:52 437.250
M-CUBED/EXP-1 PRIME 05 May 08:11:58 08:15:34 36° 102° (ESE) 08:18:54 437.505
GOMX 1 05 May 08:13:53 08:19:22 88° 107° (ESE) 08:24:33 467.674
CUTE-I 05 May 08:15:23 08:20:34 54° 289° (WNW) 08:25:43 437.470
CINEMA 3 05 May 08:21:54 08:24:48 16° 89° (E) 08:27:36 145.822/145.860
AUBIESAT-1 05 May 08:28:09 08:31:51 46° 103° (ESE) 08:35:18 437.475
SEEDS 05 May 08:29:22 08:31:20 13° 90° (E) 08:33:18 437.485
Cosmos 2504 05 May 08:33:52 08:41:20 59° 268° (W) 08:49:19 435.465 / 435.565
PRISM 05 May 08:44:01 08:48:06 83° 258° (WSW) 08:52:14 437.425
YUBILEINY 05 May 08:44:47 08:49:26 16° 286° (WNW) 08:54:07 435.215
NOAA 15 05 May 08:49:57 08:53:48 21° 299° (WNW) 08:57:37 137.62
NOAA 18 05 May 08:51:38 08:55:54 24° 299° (WNW) 09:00:09 137.9125
RS-15 05 May 08:53:52 09:03:50 31° 257° (WSW) 09:13:49 29.354- 29.394
BRITE-PL 05 May 08:54:34 08:59:09 26° 296° (WNW) 09:03:41 437.365/2234.400
AAUSAT CUBESAT 2 05 May 08:55:34 08:57:54 15° 91° (E) 09:00:15 437.432
Cubesat XI-IV 05 May 09:01:26 09:05:35 23° 298° (WNW) 09:09:42 437.490
CANX-2 05 May 09:08:42 09:12:51 54° 100° (E) 09:17:00 2200.000
ANTELSAT 05 May 09:10:20 09:10:54 10° 58° (ENE) 09:11:29 437.575/2403.000
PHONESAT 2.4 05 May 09:12:01 09:13:54 15° 154° (SSE) 09:15:47 2401.200-2431.200
HO-68 05 May 09:17:05 09:24:09 59° 102° (ESE) 09:31:11 435.675
ISS 05 May 09:21:08 09:23:54 24° 348° (NNW) 09:26:40 145.825
STRAND 1 05 May 09:22:45 09:23:31 10° 273° (W) 09:24:17 437.568
SO-50 05 May 09:26:15 09:29:10 15° 328° (NNW) 09:32:05 436.795
Cosmos 2491 05 May 09:31:59 09:38:02 20° 301° (WNW) 09:44:08 435.465 / 435.565
DOVE 4 05 May 09:34:42 09:39:15 33° 293° (WNW) 09:43:34 437.250
Oscar 11 05 May 09:38:33 09:41:34 18° 92° (E) 09:44:33 145.826/435.025
CUTE 1.7 + AOD 2 05 May 09:40:57 09:45:11 75° 284° (WNW) 09:49:24 437.475
M-CUBED/EXP-1 PRIME 05 May 09:47:07 09:49:52 18° 302° (WNW) 09:52:28 437.505
GOMX 1 05 May 09:53:41 09:56:37 15° 302° (WNW) 09:59:29 467.674
FUNcube-1 05 May 09:54:00 09:57:12 21° 93° (E) 10:00:21 145.935
CINEMA 3 05 May 09:57:49 10:02:19 51° 288° (WNW) 10:06:34 145.822/145.860
UNISAT 6 05 May 10:00:45 10:04:49 32° 69° (ENE) 10:08:51 437.425
COMPASS 1 05 May 10:01:28 10:05:39 84° 284° (WNW) 10:09:49 437.405
SEEDS 05 May 10:03:17 10:07:25 58° 287° (WNW) 10:11:32 437.485
AUBIESAT-1 05 May 10:03:43 10:05:57 15° 304° (WNW) 10:08:07 437.475
UWE-3 05 May 10:12:48 10:16:59 53° 100° (E) 10:21:02 435.000/436.395/437.385
TIGRISAT 05 May 10:16:57 10:21:19 43° 71° (ENE) 10:25:38 435.000
CUBEBUG 2 05 May 10:26:12 10:30:30 76° 285° (WNW) 10:34:41 437.445
AAUSAT CUBESAT 2 05 May 10:29:40 10:33:42 50° 287° (WNW) 10:37:43 437.432
GONETS M04 05 May 10:34:23 10:41:31 27° 64° (ENE) 10:48:34
ZACube-1 05 May 10:37:07 10:41:18 67° 101° (ESE) 10:45:25 437.345
Cosmos 2499 05 May 10:40:11 10:44:19 15° 59° (ENE) 10:48:33 435.465 / 435.565
ANTELSAT 05 May 10:42:14 10:46:53 82° 75° (ENE) 10:51:26 437.575/2403.000
CANX-2 05 May 10:45:50 10:48:17 15° 297° (WNW) 10:50:45 2200.000
NANOSAT C BR1 05 May 10:46:22 10:49:19 19° 64° (ENE) 10:52:17 145.865
PHONESAT 2.4 05 May 10:47:20 10:50:16 36° 170° (S) 10:53:12 2401.200-2431.200
ISS 05 May 10:58:24 11:01:05 23° 9° (N) 11:03:46 145.825
HO-68 05 May 11:05:26 11:11:29 31° 301° (WNW) 11:17:31 435.675
Oscar 11 05 May 11:13:49 11:17:54 43° 288° (WNW) 11:21:58 145.826/435.025
HUMSAT D 05 May 11:16:03 11:19:58 44° 99° (E) 11:23:52 437.325/437.525
DELFI C3 05 May 11:20:06 11:24:05 69° 285° (WNW) 11:28:03 145.870
AO-85 05 May 11:26:24 11:29:44 17° 108° (ESE) 11:33:05 145.980
FUNcube-1 05 May 11:29:46 11:33:33 34° 290° (WNW) 11:37:18 145.935
DUCHIFAT 1 05 May 11:35:56 11:40:06 56° 73° (ENE) 11:44:17 145.980
UNISAT 6 05 May 11:37:33 11:41:31 28° 264° (W) 11:45:28 437.425
AISAT 05 May 11:38:57 11:40:43 12° 89° (E) 11:42:27 437.250
QB50P2 05 May 11:40:14 11:44:30 73° 76° (ENE) 11:48:48 145.880/145.840
AIST 1 05 May 11:41:14 11:45:39 72° 80° (E) 11:50:03
POLYITAN 1 05 May 11:42:26 11:46:43 74° 74° (ENE) 11:51:00 437.675
POPSAT HIP 1 05 May 11:44:14 11:48:31 75° 75° (ENE) 11:52:49 437.405
QB50P1 05 May 11:47:11 11:51:27 82° 78° (ENE) 11:55:46 145.935-145.965
UWE-3 05 May 11:50:32 11:53:00 15° 298° (WNW) 11:55:26 435.000/436.395/437.385
TIGRISAT 05 May 11:54:43 11:58:10 21° 267° (W) 12:01:36 435.000
50 SAT 05 May 12:00:47 12:03:31 20° 94° (E) 12:06:15 437.505
BUGSAT 1 05 May 12:05:47 12:09:57 58° 73° (ENE) 12:14:09 437.445
CUBEBUG 1 05 May 12:06:15 12:09:46 22° 93° (E) 12:13:15 437.445
ESTCUBE 1 05 May 12:07:19 12:11:24 32° 96° (E) 12:15:29 437.505/2401.250
ZACube-1 05 May 12:15:16 12:17:03 12° 299° (WNW) 12:18:48 437.345
NANOSAT C BR1 05 May 12:20:38 12:24:44 45° 261° (W) 12:28:51 145.865
ANTELSAT 05 May 12:23:05 12:24:07 11° 272° (W) 12:25:10 437.575/2403.000
PHONESAT 2.4 05 May 12:23:52 12:26:50 39° 187° (S) 12:29:49 2401.200-2431.200
DX 1 05 May 12:27:49 12:31:47 32° 97° (E) 12:35:43 434.975-435.025
UKube-1 05 May 12:29:04 12:32:48 27° 96° (E) 12:36:30 .
GONETS M04 05 May 12:30:30 12:39:13 73° 266° (W) 12:47:51
Cosmos 2499 05 May 12:31:03 12:38:51 71° 80° (E) 12:47:13 435.465 / 435.565
JAS-2 05 May 12:32:56 12:38:38 38° 63° (ENE) 12:45:00 435.910
ISS 05 May 12:34:44 12:38:00 63° 29° (NNE) 12:41:14 145.825
VELOX 1 05 May 12:40:42 12:45:04 51° 100° (E) 12:49:24 145.980
HUMSAT D 05 May 12:52:38 12:55:16 17° 296° (WNW) 12:57:54 437.325/437.525
SPROUT 05 May 12:53:33 12:57:14 27° 95° (E) 13:00:52 437.525
Oscar 19 05 May 13:04:01 13:08:45 37° 67° (ENE) 13:13:30 437.125/150
AO-85 05 May 13:04:10 13:09:39 82° 305° (NW) 13:15:04 145.980
AISAT 05 May 13:13:12 13:17:41 70° 286° (WNW) 13:22:06 437.250
DUCHIFAT 1 05 May 13:13:53 13:16:09 14° 270° (W) 13:18:24 145.980
AO-7 05 May 13:15:57 13:18:41 12° 38° (NE) 13:21:25 29.400- 29.500
TISAT 1 05 May 13:17:43 13:20:07 15° 91° (E) 13:22:29 437.305
QB50P2 05 May 13:19:44 13:20:49 11° 271° (W) 13:21:53 145.880/145.840
AIST 1 05 May 13:21:32 13:22:35 11° 278° (W) 13:23:39
POLYITAN 1 05 May 13:22:05 13:23:01 11° 271° (W) 13:23:57 437.675
Gurwin Techsat 1B 05 May 13:22:34 13:26:47 25° 63° (ENE) 13:31:00 435.225
POPSAT HIP 1 05 May 13:24:03 13:24:49 10° 272° (W) 13:25:34 437.405
50 SAT 05 May 13:34:09 13:37:20 28° 290° (WNW) 13:40:31 437.505
CUBEBUG 1 05 May 13:42:04 13:46:09 37° 291° (WNW) 13:50:13 437.445
BUGSAT 1 05 May 13:43:35 13:45:42 13° 270° (W) 13:47:49 437.445
ESTCUBE 1 05 May 13:44:17 13:48:06 27° 293° (WNW) 13:51:54 437.505/2401.250
PHONESAT 2.4 05 May 14:01:02 14:03:15 18° 203° (SSW) 14:05:29 2401.200-2431.200
DX 1 05 May 14:04:13 14:07:51 26° 294° (WNW) 14:11:28 434.975-435.025
UKube-1 05 May 14:05:03 14:08:49 29° 293° (WNW) 14:12:34 .
ISS 05 May 14:11:48 14:14:10 19° 225° (SW) 14:16:31 145.825
JAS-2 05 May 14:17:53 14:23:36 40° 265° (W) 14:30:05 435.910
VELOX 1 05 May 14:18:08 14:21:09 18° 297° (WNW) 14:24:10 145.980
O/OREOS (USA 219) 05 May 14:20:25 14:24:31 32° 105° (ESE) 14:28:37 437.305
Cosmos 2499 05 May 14:25:18 14:31:17 25° 278° (W) 14:37:35 435.465 / 435.565
ITAMSAT 1 05 May 14:28:58 14:33:46 40° 68° (ENE) 14:38:34 435.822/435.867
SPROUT 05 May 14:29:26 14:33:09 29° 292° (WNW) 14:36:50 437.525
GONETS M04 05 May 14:30:15 14:34:22 14° 287° (WNW) 14:38:28
SO-50 05 May 14:33:11 14:37:14 26° 41° (NE) 14:41:08 436.795
ITUPSAT 1 05 May 14:35:55 14:39:23 20° 93° (E) 14:42:50 437.325
SWISSCUBE 05 May 14:43:19 14:47:19 26° 95° (E) 14:51:17 437.505
Oscar 19 05 May 14:43:37 14:48:06 29° 265° (W) 14:52:39 437.125/150
AO-85 05 May 14:47:04 14:50:58 19° 325° (NW) 14:54:46 145.980
TISAT 1 05 May 14:51:58 14:56:05 52° 288° (WNW) 15:00:09 437.305
PCSat 05 May 14:56:51 15:01:30 30° 110° (ESE) 15:06:12 145.827
Gurwin Techsat 1B 05 May 15:01:18 15:06:26 48° 261° (W) 15:11:35 435.225
AO-7 05 May 15:01:38 15:09:22 46° 61° (ENE) 15:17:08 29.400- 29.500
CUSAT 1 05 May 15:12:35 15:16:12 49° 93° (E) 15:21:00 437.405
BEESAT 05 May 15:15:43 15:20:21 48° 100° (E) 15:24:58 436.000
